Tracking 18980 objects as of 20-Feb-2018
HD Live streaming from Space Station
objects crossing your sky now

FENGYUN 1C DEB

Track FENGYUN 1C DEB now!
10-day predictions


NORAD ID: 35142
Int'l Code: 1999-025DLW
Perigee: 858.3 km
Apogee: 1,019.3 km
Inclination: 99.2 °
Period: 103.7 minutes
Semi major axis: 7309 km
RCS: 0.0035 m2 (small)
Launch date: May 10, 1999
Source: People's Republic of China (PRC)
Launch site: Taiyaun Space Center, China (TSC)

Note: This is SATELLITE DEBRIS
aabbcc
Your satellite tracking list
Your tracking list is empty




NASA's NSSDC Master Catalog

Two Line Element Set (TLE):
1 35142U 99025DLW 18050.31271127 +.00000044 +00000-0 +68303-4 0  9990
2 35142 099.1548 083.0649 0110092 030.7991 026.7557 13.89129617462039
Source of the keplerian elements: AFSPC